www.pogodaiklimat.ru

Погода и климат >> Архив погоды >> Таиланд >> Паттайя


ПОГОДА в Паттайе

  • Прогноз погоды в Паттайе
  • Монитор погоды в Паттайе

АРХИВ ПОГОДЫ в Паттайе

Время (UTC), дата Ветер
(напр.,м/с)
 
Видим.   Явления Облачность Т
(С)
Тd
(С)
f
(%)
Тe
(С)
Тes
(С)
Комфортность P
(гПа)
Po
(гПа)
Тmin
(С)
Tmax
(С)
R
(мм)
R24
(мм)
S
(см)
00 14.06 ЮЗ 8 10 км 8/4 600 м
[Sc Ac As Cs]
+29.5 +25.2 78 +43 +43 опасность
перегрева
1007.8 1000.9 +28.0
03 14.06 ЮЗ 6 12 км 6/3 600 м
[Cu hum Ac lent Cs]
+31.0 +24.6 69 +44 +47 опасность
перегрева
1008.9 1002.0
06 14.06 ЮЗ 8 12 км 6/1 600 м
[Cu hum Ac lent Cs]
+32.0 +24.9 66 +45 +48 опасность
перегрева
1007.2 1000.4
09 14.06 штиль 0 12 км 4/3 600 м
[Cu hum Cs]
+32.5 +25.5 67 +47 +54 опасность
перегрева
1004.9 998.1
12 14.06 штиль 0 12 км 8/4 600 м
[Sc Ac As Cs]
+30.0 +25.8 78 +45 +45 опасность
перегрева
1006.3 999.4 +32.8
15 14.06 ЮЗ 6 10 км 8/4 600 м
[Sc Ac As Cs]
+30.0 +25.0 75 +43 +43 опасность
перегрева
1006.6 999.8
18 14.06 штиль 0 10 км 8/4 600 м
[Sc Ac As Cs]
+29.5 +25.2 78 +43 +43 опасность
перегрева
1007.8 1000.9
21 14.06 ЮЗ 4 10 км 4/1 600 м
[Cu hum Cs]
+29.0 +23.2 71 +39 +39 очень
душно
1006.6 999.7
00 15.06 ЮЗ 3 10 км 6/3 600 м
[Cu hum Ac lent Cs]
+29.5 +24.5 75 +42 +43 опасность
перегрева
1008.1 1001.2 +28.0
03 15.06 ЮЗ 6 10 км 4/3 600 м
[Cu hum Cs]
+31.8 +25.2 68 +46 +50 опасность
перегрева
1009.3 1002.5
06 15.06 ЮЗ 6 10 км 6/1 600 м
[Cu hum Cs]
+32.0 +25.2 67 +46 +52 опасность
перегрева
1007.8 1001.0
09 15.06 Ю 3 10 км 6/0
[Cs]
+32.8 +25.5 66 +48 +53 опасность
перегрева
1005.2 998.4
12 15.06 штиль 0 10 км 6/0
[Cs]
+30.0 +26.1 80 +45 +45 опасность
перегрева
1006.2 999.3 +33.2
15 15.06 Ю 5 10 км 6/0
[Cs]
+30.0 +26.8 83 +47 +47 опасность
перегрева
1008.5 1001.6
18 15.06 ЮЗ 5 10 км 4/0
[Cs]
+30.0 +24.6 73 +43 +43 опасность
перегрева
1007.7 1000.9
21 15.06 З 3 10 км 4/0
[Cs]
+29.4 +23.8 72 +40 +40 очень
душно
1006.4 999.5
00 16.06 ЮЗ 7 10 км 8/1 600 м
[Cu hum Cs]
+29.5 +24.3 74 +41 +42 опасность
перегрева
1007.3 1000.4 +28.5
03 16.06 ЮЗ 4 10 км 6/1 600 м
[Sc Cs]
+31.9 +25.1 67 +45 +54 опасность
перегрева
1008.4 1001.6
06 16.06 ЮЗ 5 10 км 6/3 600 м
[Sc Cs]
+32.1 +24.9 66 +46 +53 опасность
перегрева
1006.8 999.9
09 16.06 ЮЗ 5 10 км 8/4 600 м
[Sc Ac As Cs]
+32.5 +26.2 69 +48 +50 опасность
перегрева
1005.0 998.2
12 16.06 ЮЗ 7 10 км 10/5 600 м
[Sc Ac As Cs]
+30.0 +25.8 78 +45 +45 опасность
перегрева
1005.9 999.1 +32.7
15 16.06 ЮЗ 4 10 км слаб. ливневой дождь, в посл. час гроза 8/5 600 м
[Sc Ac As Cs]
+27.6 +26.6 94 +42 +42 опасность
перегрева
1008.0 1001.0 35
18 16.06 ЮЗ 7 10 км слаб. дождь {гроза} 8/3 600 м
[Sc Cs]
+27.7 +24.5 83 +39 +39 очень
душно
1007.4 1000.5 0.2
21 16.06 СЗ 3 10 км {дождь} 8/0
[Cs]
+28.1 +25.1 84 +41 +41 опасность
перегрева
1006.3 999.3 0.0
00 17.06 З 3 10 км {дождь} 10/5 600 м
[Sc Ac As Cs]
+28.5 +24.9 81 +41 +41 опасность
перегрева
1007.4 1000.5 +25.5 35
03 17.06 ЮЗ 5 12 км 8/4 600 м
[Sc Ac As Cs]
+29.5 +24.5 75 +42 +45 опасность
перегрева
1009.2 1002.3
06 17.06 ЮЗ 8 10 км 10/5 600 м
[Sc Ac As Cs]
+29.8 +25.1 76 +43 +44 опасность
перегрева
1007.7 1000.8
09 17.06 З 4 10 км 8/4 600 м
[Sc Ac As Cs]
+30.0 +23.5 68 +41 +43 опасность
перегрева
1006.4 999.5
12 17.06 З 7 10 км 8/4 600 м
[Sc Ac As Cs]
+28.5 +23.4 74 +39 +39 очень
душно
1006.5 999.6 +30.5
15 17.06 ЮЗ 8 10 км 8/4 600 м
[Sc Ac As Cs]
+28.5 +23.4 74 +39 +39 очень
душно
1008.3 1001.4
18 17.06 ЮЗ 7 10 км 10/5 600 м
[Sc Ac As Cs]
+29.0 +23.2 71 +39 +39 очень
душно
1007.8 1000.9
21 17.06 штиль 0 10 км 8/4 600 м
[Sc Ac As Cs]
+28.5 +24.9 81 +41 +41 опасность
перегрева
1006.5 999.6
00 18.06 ЮЗ 3 10 км 6/3 600 м
[Cu hum Ac lent Cs]
+29.0 +25.5 81 +43 +43 опасность
перегрева
1006.9 1000.0 +27.5
03 18.06 ЮЗ 5 12 км 6/3 600 м
[Cu hum Ac lent Cs]
+30.5 +24.8 72 +44 +48 опасность
перегрева
1008.4 1001.6
06 18.06 З 4 12 км 8/4 600 м
[Sc Ac As Cs]
+30.5 +24.0 68 +42 +48 опасность
перегрева
1007.6 1000.7
09 18.06 З 7 12 км 6/3 600 м
[Cu hum Cs]
+30.5 +24.0 68 +42 +43 опасность
перегрева
1005.9 999.1
12 18.06 СЗ 4 10 км 10/5 600 м
[Sc Ac As Cs]
+29.5 +22.9 68 +39 +39 очень
душно
1006.7 999.8 +31.5
15 18.06 штиль 0 10 км 8/4 600 м
[Sc Ac As Cs]
+28.5 +24.2 78 +40 +40 очень
душно
1008.4 1001.5
18 18.06 ЮЗ 7 10 км 8/4 600 м
[Sc Ac As Cs]
+28.5 +24.2 78 +40 +40 очень
душно
1007.8 1000.9
21 18.06 ЮЗ 6 10 км 8/4 600 м
[Sc Ac As Cs]
+28.5 +24.2 78 +40 +40 очень
душно
1007.0 1000.1
00 19.06 штиль 0 10 км 8/4 600 м
[Sc Ac As Cs]
+28.5 +24.9 81 +41 +42 опасность
перегрева
1007.8 1000.9 +27.5
03 19.06 штиль 0 10 км 10/4 600 м
[Sc Ac As Cs]
+30.3 +24.4 71 +43 +49 опасность
перегрева
1009.4 1002.5
06 19.06 ЮЗ 6 10 км 8/4 600 м
[Sc Ac As Cs]
+32.2 +25.6 68 +47 +50 опасность
перегрева
1007.8 1000.9
09 19.06 З 3 10 км 6/3 600 м
[Sc Cs]
+32.1 +25.5 68 +47 +51 опасность
перегрева
1005.8 999.0
12 19.06 штиль 0 10 км 6/1 600 м
[Cu hum Cs]
+30.0 +25.0 75 +43 +43 опасность
перегрева
1006.1 999.3 +32.6
15 19.06 штиль 0 10 км 4/1 600 м
[Cu hum Cs]
+27.0 +23.6 82 +37 +37 очень
душно
1008.2 1001.3
18 19.06 штиль 0 10 км 6/0
[Cs]
+26.5 +24.2 87 +37 +37 очень
душно
1007.9 1001.0
21 19.06 штиль 0 10 км 3/0
[Cs]
+28.5 +24.3 78 +40 +40 очень
душно
1007.0 1000.1
00 20.06 штиль 0 10 км 6/1 600 м
[Cu hum Cs]
+29.0 +24.3 76 +41 +42 опасность
перегрева
1008.6 1001.7 +25.6
03 20.06 штиль 0 10 км 4/0
[Cs]
+31.4 +24.1 65 +43 +62 опасность
перегрева
1009.5 1002.6
06 20.06 ЮЗ 5 10 км 4/3 600 м
[Sc Cs]
+32.4 +25.2 66 +46 +54 опасность
перегрева
1008.1 1001.3
09 20.06 ЮЗ 3 10 км 4/0
[Cs]
+32.3 +25.4 67 +47 +53 опасность
перегрева
1006.2 999.4
12 20.06 штиль 0 10 км 8/4 600 м
[Sc Cs]
+30.0 +25.9 79 +45 +45 опасность
перегрева
1006.7 999.9 +32.7
15 20.06 штиль 0 10 км 3/0
[Cs]
+29.4 +25.4 79 +43 +43 опасность
перегрева
1007.9 1001.0
18 20.06 ЮЗ 6 10 км 3/0
[Cs]
+29.7 +25.2 77 +43 +43 опасность
перегрева
1007.1 1000.3

 

Местоположение метеостанции Паттайя (Таиланд): широта 12.92 долгота 100.86 высота над уровнем моря 61 м.

В архиве по умолчанию представлена погода в Паттайе за последнюю неделю. Архивные данные за месяц целиком и за предыдущие месяцы, начиная с января 2011 года, Вы можете получить, выбрав интересующий диапазон дат из раскрывающегося списка и нажав кнопку "Ввод!".


*Определитесь, кто Вы:
робот инопланетянин человек

Внимание! Время в таблицах - всемирное. Для получения местного времени необходимо прибавить поправку, которая равна 7 ч.

Смотрите также архив погоды в соседних городах и на ближайших метеорологических станциях:

Погода на Ко Сичан (Таиланд) (29 км)
Погода в Саттахипе (Таиланд) (30 км)
Погода в Хуайпонг Агромете (Таиланд) (36 км)
Погода в Чонбури (Таиланд) (52 км)
Погода в Ратбури (Таиланд) (52 км)
Погода в Бангкок Пилот (Таиланд) (58 км)
Погода в Районге (Таиланд) (62 км)
Погода в Самутрудкан Агромете (Таиланд) (68 км)
Погода в Аэропорту Суварнабхуми (Таиланд) (85 км)
Погода в Бангна Агромете (Таиланд) (87 км)

Пояснения к столбцам:

Ветер - указаны скорость ветра в м/с - средняя за 10 мин, порывы в срок и между сроками (в фигурных скобках) и направление, откуда дует ветер: С - северный, СВ - северо-восточный, В - восточный, ЮВ - юго-восточный, Ю - южный, ЮЗ - юго-западный, З - западный, СЗ - северо-западный.
Видимость - горизонтальная дальность видимости в метрах или километрах. При видимости от 1 до 10 км при отсутствии осадков обычно наблюдается дымка, при ухудшении видимости до 1 км и менее - туман. В сухую погоду видимость может ухудшаться дымом, пылью или мглою.
Явления - указаны атмосферные явления, наблюдавшиеся в срок или в последний час перед сроком; фигурными скобками обозначены явления, наблюдавшиеся между сроками (за 1-3 часа до срока); квадратными скобками обозначены град или гололедные отложения с указанием их диаметра в мм.
Облачность - указаны через наклонную черту общая и нижняя облачность в баллах и высота нижней границы облаков в метрах; квадратными скобками обозначены формы облаков: Ci - перистые, Cs - перисто-слоистые, Cc - перисто-кучевые, Ac - высококучевые, As - высокослоистые, Sc - слоисто-кучевые, Ns - слоисто-дождевые, Cu - кучевые, Cb - кучево-дождевые. Подробнее классификацию облаков см. в Атласе облаков (PDF).
T - Температура воздуха - температура, измеренная на высоте 2 м над землей.
Td - Температура точки росы - температура, при понижении до которой содержащийся в воздухе водяной пар достигнет насыщения.
f - Относительная влажность воздуха - влажноcть воздуха, измеренная на высоте 2 м над землей.
Te - Эффективная температура - температура, которую ощущает одетый по сезону человек в тени. Характеристика душности погоды. При расчете учитывается влияние влажности воздуха и скорости ветра на теплоощущения человека.
Tes - Эффективная температура на солнце - температура, которую ощущает человек, с поправкой на солнечный нагрев. Характеристика знойности погоды. Зависит от высоты солнца над горизонтом, облачности и скорости ветра. Ночью, в пасмурную погоду, а также при ветре 12 м/с и более поправка равна нулю.
P - Атмосферное давление - приведенное к уровню моря атмосферное давление.
Po - Атмосферное давление - измеренное на уровне метеостанции атмосферное давление.
Tmin - Минимальная температура - минимум температуры воздуха на высоте 2 м над землей.
Tmax - Максимальная температура - максимум температуры воздуха на высоте 2 м над землей.
R - Количество осадков - Количество выпавших осадков за период времени, мм. При наведении курсора мыши на число - период времени, за который выпало указанное количество осадков.
R24 - Количество осадков - Количество выпавших осадков за 24 часа, мм.
S - Снежный покров - Высота снежного покрова, см. При наведении курсора мыши на число - состояние снежного покрова и степень покрытия местности в баллах.